[[{"header":{"parameterUnit":"m.s-1","parameterCategory":1,"la1":30.2991,"la2":30.254,"lo1":-89.0895,"lo2":-89.0444,"dy":0.0017,"dx":0.0017,"nx":28,"ny":28,"refTime":"2024-10-02T09:00:00:Z","depth":0,"parameterNumber":2,"parameterNumberName":"U-component_of_WINDS"},"data":[0,0,0,0,0,0,0,0,0,0,0,0,0,0,0,0,0,0,0,0,0,0,0,0,0,0,0,0,0,0,0,0,0,0,0,0,0,0,0,0,0,0,0,0,0,0,0,0,0,0,0,0,0,0,0,0,0,0,-0.4063,-0.4064,0,-0.4099,-0.41,-0.41,-0.4064,-0.4062,-0.4061,-0.406,-0.4098,-0.41,-0.4102,0,0,0,0,0,0,0,0,0,0,0,0,0,-0.3965,-0.3967,-0.4063,-0.4064,-0.4064,-0.4099,-0.41,-0.41,-0.4064,-0.4062,-0.4061,-0.4059,-0.4097,-0.41,-0.4102,0,0,0,0,0,0,0,0,0,0,0,0,0,-0.4005,-0.3967,-0.4063,-0.405,-0.405,-0.4099,-0.41,-0.41,-0.4064,-0.4062,-0.406,-0.4058,-0.4096,-0.4099,-0.4103,-0.4167,0,0,-0.4113,-0.4115,0,0,0,0,0,0,0,0,-0.4002,-0.4008,-0.4052,-0.4051,-0.4051,-0.4075,-0.4079,-0.4123,-0.4065,-0.4059,-0.406,-0.4057,-0.4092,-0.4095,-0.4107,-0.4169,-0.417,-0.4114,-0.4116,-0.4117,-0.4118,0,0,0,0,0,0,0,-0.4,-0.4007,-0.4078,-0.4053,-0.4052,-0.4043,-0.4047,-0.4087,-0.4087,-0.4059,-0.4057,-0.4061,-0.4091,-0.4104,-0.4108,-0.4171,-0.4114,-0.4117,-0.4119,-0.412,-0.4288,-0.429,0,0,0,0,0,0,-0.3998,-0.4005,-0.4076,-0.4079,-0.4021,-0.4047,-0.405,-0.4069,-0.4086,-0.4087,-0.4063,-0.406,-0.4099,-0.4103,-0.4109,-0.4186,-0.4117,-0.4121,-0.4123,-0.4285,-0.4288,-0.4291,0,0,0,0,0,0,-0.3996,-0.4005,-0.4075,-0.4041,-0.4049,-0.4051,-0.4072,-0.4071,-0.4084,-0.4089,-0.4089,-0.4076,-0.4097,-0.4104,-0.4153,-0.4187,-0.4122,-0.4125,-0.4282,-0.4286,-0.4289,-0.4341,0,0,0,0,0,0,-0.3994,-0.4004,-0.4029,-0.4042,-0.4051,-0.4119,-0.4074,-0.4073,-0.409,-0.4085,-0.4101,-0.4102,-0.4096,-0.4148,-0.4156,-0.419,-0.4128,-0.4279,-0.4284,-0.4288,-0.4336,-0.4345,-0.4354,0,0,0,0,0,-0.399,-0.4042,-0.403,-0.4039,-0.4082,-0.4121,-0.4126,-0.4118,-0.4093,-0.4117,-0.4121,-0.4101,-0.4181,-0.4153,-0.4162,-0.4198,-0.4277,-0.4283,-0.4288,-0.4332,-0.4344,-0.4353,0,0,0,0,0,0,-0.4034,-0.4044,-0.4031,-0.4088,-0.4104,-0.4114,-0.4145,-0.413,-0.4154,-0.4149,-0.4138,-0.4142,-0.4194,-0.42,-0.4169,-0.4261,-0.4225,-0.4233,-0.4256,-0.4267,-0.4275,-0.4274,-0.4131,0,0,0,0,0,-0.405,-0.408,-0.4087,-0.4137,-0.4146,-0.4144,-0.4161,-0.4153,-0.4169,-0.4176,-0.4183,-0.4199,-0.4228,-0.4247,-0.4274,-0.4336,-0.4339,-0.4365,-0.4374,-0.4381,-0.4388,-0.4422,-0.4434,-0.4308,-0.4308,-0.4308,0,0,-0.4084,-0.4093,-0.4113,-0.4146,-0.4157,-0.419,-0.415,-0.4186,-0.421,-0.4181,-0.4228,-0.4234,-0.4251,-0.4307,-0.4332,-0.4315,-0.4423,-0.4388,-0.4393,-0.4397,-0.4429,-0.4441,-0.4452,-0.4312,-0.4311,-0.431,0,0,-0.4163,-0.4172,-0.4215,-0.4227,-0.4244,-0.4243,-0.4253,-0.4266,-0.4269,-0.4315,-0.4295,-0.4323,-0.4372,-0.4386,-0.4399,-0.4482,-0.4466,-0.4491,-0.4538,-0.4572,-0.4582,-0.4591,-0.4622,-0.4633,-0.4498,-0.4498,-0.4498,0,-0.4203,-0.4251,-0.424,-0.4277,-0.4293,-0.4267,-0.4311,-0.4323,-0.4348,-0.436,-0.4339,-0.4401,-0.4411,-0.447,-0.449,-0.4501,-0.4514,-0.4491,-0.4581,-0.459,-0.4598,-0.4627,-0.4639,-0.4501,-0.4501,-0.45,-0.45,0,-0.4301,-0.4334,-0.4367,-0.4392,-0.4411,-0.4451,-0.4446,-0.4467,-0.4457,-0.4458,-0.4506,-0.4516,-0.4545,-0.4558,-0.4549,-0.4616,-0.4605,-0.4583,-0.4547,-0.4613,-0.4641,-0.4652,-0.4506,-0.4504,-0.4504,-0.4503,0,0,-0.441,-0.4427,-0.444,-0.4451,-0.4468,-0.4493,-0.4532,-0.456,-0.4579,-0.4596,-0.463,-0.4672,-0.4651,-0.4667,-0.4658,-0.4687,-0.4754,-0.4662,-0.4662,-0.468,-0.483,-0.4848,-0.4862,-0.4742,-0.4744,-0.4746,-0.4829,0,-0.4491,-0.4559,-0.455,-0.4616,-0.4647,-0.4622,-0.4656,-0.467,-0.4672,-0.4699,-0.47,-0.473,-0.47,-0.471,-0.4737,-0.474,-0.4784,-0.4734,-0.4774,-0.4776,-0.4773,-0.4876,-0.4895,-0.4974,-0.484,-0.4842,-0.4843,0,-0.4595,-0.4617,-0.4686,-0.4697,-0.471,-0.4741,-0.4766,-0.4791,-0.4807,-0.4805,-0.4822,-0.4809,-0.4848,-0.4809,-0.4864,-0.483,-0.4846,-0.485,-0.4852,-0.4858,-0.4815,-0.4886,-0.4998,-0.5011,-0.486,-0.4858,-0.4857,0,-0.467,-0.4716,-0.4764,-0.4774,-0.4788,-0.4811,-0.4818,-0.4831,-0.4848,-0.4869,-0.4881,-0.4906,-0.4921,-0.4941,-0.4935,-0.4907,-0.4991,-0.4952,-0.4993,-0.4993,-0.5014,-0.5013,-0.5132,-0.502,-0.502,-0.502,-0.502,0,-0.4763,-0.4807,-0.4798,-0.4827,-0.4875,-0.4863,-0.4912,-0.4915,-0.4927,-0.4957,-0.4936,-0.4965,-0.4954,-0.4982,-0.4977,-0.5024,-0.503,-0.5031,-0.503,-0.5035,-0.5035,-0.5046,-0.5042,-0.5023,-0.5022,-0.5022,-0.5021,0,-0.4856,-0.4852,-0.4902,-0.4911,-0.4915,-0.495,-0.4958,-0.4986,-0.4985,-0.5023,-0.5031,-0.503,-0.5062,-0.5057,-0.5092,-0.5089,-0.5148,-0.5139,-0.5143,-0.5142,-0.5184,-0.5181,-0.5317,-0.5334,-0.5209,-0.521,-0.5211,0,-0.4917,-0.495,-0.4963,-0.4981,-0.499,-0.502,-0.5037,-0.5026,-0.5045,-0.5065,-0.509,-0.512,-0.5144,-0.5196,-0.5198,-0.5225,-0.5218,-0.5263,-0.5222,-0.5226,-0.5221,-0.522,-0.5224,-0.5273,-0.5274,-0.5275,-0.5276,0,-0.5026,-0.5021,-0.5047,-0.5072,-0.5094,-0.5113,-0.513,-0.5146,-0.5137,-0.5159,-0.5191,-0.521,-0.5245,-0.5276,-0.5301,-0.5308,-0.5291,-0.5289,-0.53,-0.5306,-0.5308,-0.5309,-0.5168,-0.5286,-0.5285,-0.5285,-0.5284,-0.5284,-0.5106,-0.5134,-0.5148,-0.5177,-0.5189,-0.5205,-0.5232,-0.5234,-0.526,-0.5289,-0.528,-0.5317,-0.5331,-0.5363,-0.5373,-0.5402,-0.5385,-0.5401,-0.5405,-0.541,-0.5416,-0.5301,-0.5406,-0.5406,-0.5405,-0.5405,-0.5405,0,-0.5215,-0.5222,-0.5249,-0.5274,-0.5297,-0.5277,-0.5295,-0.5316,-0.5349,-0.5363,-0.5386,-0.5424,-0.5452,-0.5457,-0.5484,-0.5507,-0.55,-0.5514,-0.5514,-0.5516,-0.5428,-0.5417,-0.552,-0.552,-0.552,-0.552,-0.552,-0.552,-0.5275,-0.5322,-0.532,-0.5373,-0.5379,-0.5415,-0.5427,-0.5442,-0.5454,-0.5496,-0.552,-0.5522,-0.5533,-0.5561,-0.5586,-0.5587,-0.5599,-0.5617,-0.5615,-0.5533,-0.5522,-0.5511,-0.55,-0.5619,-0.562,-0.5701,-0.5701,-0.5702]},{"header":{"parameterUnit":"m.s-1","parameterCategory":1,"la1":30.2991,"la2":30.254,"lo1":-89.0895,"lo2":-89.0444,"dy":0.0017,"dx":0.0017,"nx":28,"ny":28,"refTime":"2024-10-02T09:00:00:Z","depth":0,"parameterNumber":3,"parameterNumberName":"V-component_of_WINDS"},"data":[0,0,0,0,0,0,0,0,0,0,0,0,0,0,0,0,0,0,0,0,0,0,0,0,0,0,0,0,0,0,0,0,0,0,0,0,0,0,0,0,0,0,0,0,0,0,0,0,0,0,0,0,0,0,0,0,0,0,-4.4344,-4.4345,0,-4.442,-4.4421,-4.4422,-4.4365,-4.4362,-4.436,-4.4357,-4.4431,-4.4435,-4.4439,0,0,0,0,0,0,0,0,0,0,0,0,0,-4.4143,-4.4147,-4.4344,-4.4345,-4.4346,-4.442,-4.4421,-4.4422,-4.4365,-4.4362,-4.4359,-4.4356,-4.443,-4.4435,-4.444,0,0,0,0,0,0,0,0,0,0,0,0,0,-4.4226,-4.4148,-4.4343,-4.4326,-4.4325,-4.442,-4.4421,-4.4423,-4.4366,-4.4362,-4.4358,-4.4355,-4.4428,-4.4434,-4.4441,-4.4555,0,0,-4.446,-4.4463,0,0,0,0,0,0,0,0,-4.4221,-4.4233,-4.4328,-4.4328,-4.4327,-4.4379,-4.4377,-4.4467,-4.4367,-4.435,-4.4357,-4.4353,-4.4417,-4.4424,-4.4446,-4.4558,-4.4561,-4.4461,-4.4465,-4.4467,-4.4469,0,0,0,0,0,0,0,-4.4215,-4.4229,-4.4374,-4.4329,-4.4329,-4.4313,-4.4321,-4.4394,-4.4403,-4.4351,-4.4348,-4.4358,-4.4415,-4.444,-4.4447,-4.4562,-4.4461,-4.4466,-4.447,-4.4473,-4.4771,-4.4775,0,0,0,0,0,0,-4.4212,-4.4225,-4.4371,-4.4376,-4.4264,-4.432,-4.4328,-4.4366,-4.4402,-4.4404,-4.4361,-4.4355,-4.4431,-4.444,-4.445,-4.4585,-4.4467,-4.4473,-4.4477,-4.4767,-4.4772,-4.4776,0,0,0,0,0,0,-4.4208,-4.4226,-4.4368,-4.43,-4.4317,-4.4327,-4.437,-4.437,-4.4394,-4.4409,-4.441,-4.4385,-4.4428,-4.4441,-4.4529,-4.4587,-4.4476,-4.4482,-4.4762,-4.4768,-4.4774,-4.4858,0,0,0,0,0,0,-4.4202,-4.4224,-4.4269,-4.4301,-4.4321,-4.4448,-4.4374,-4.4374,-4.4406,-4.4399,-4.4432,-4.4434,-4.4426,-4.452,-4.4536,-4.4594,-4.4487,-4.4757,-4.4765,-4.4772,-4.485,-4.4866,-4.488,0,0,0,0,0,-4.4195,-4.4289,-4.4272,-4.429,-4.4377,-4.4452,-4.4463,-4.4454,-4.4411,-4.4455,-4.4465,-4.4433,-4.4578,-4.453,-4.4547,-4.4608,-4.4753,-4.4763,-4.4772,-4.4843,-4.4863,-4.488,0,0,0,0,0,0,-4.4262,-4.4293,-4.4274,-4.4381,-4.4415,-4.4442,-4.4498,-4.4475,-4.452,-4.4511,-4.4496,-4.4504,-4.4597,-4.4611,-4.4556,-4.472,-4.4659,-4.4672,-4.4707,-4.4726,-4.4741,-4.4735,-4.4492,0,0,0,0,0,-4.4289,-4.4349,-4.4372,-4.4464,-4.4482,-4.4487,-4.4519,-4.451,-4.4543,-4.4556,-4.4572,-4.4605,-4.4657,-4.4693,-4.4742,-4.4852,-4.4858,-4.4902,-4.4917,-4.4929,-4.4941,-4.4999,-4.5019,-4.4806,-4.4806,-4.4806,0,0,-4.4345,-4.437,-4.4408,-4.4478,-4.4503,-4.4564,-4.4499,-4.4566,-4.4611,-4.4566,-4.4651,-4.4664,-4.4699,-4.4798,-4.4843,-4.4813,-4.5001,-4.4941,-4.4951,-4.4955,-4.5011,-4.5031,-4.5049,-4.4813,-4.4812,-4.4811,0,0,-4.448,-4.4505,-4.4584,-4.461,-4.4649,-4.4652,-4.4671,-4.4703,-4.471,-4.4796,-4.4763,-4.4815,-4.4906,-4.4932,-4.4958,-4.5102,-4.5074,-4.5118,-4.5196,-4.5253,-4.527,-4.5285,-4.5336,-4.5354,-4.5129,-4.513,-4.513,0,-4.4545,-4.4637,-4.4627,-4.4697,-4.4728,-4.4692,-4.4771,-4.4797,-4.4849,-4.4871,-4.4836,-4.4951,-4.4972,-4.5077,-4.5112,-4.5134,-4.5154,-4.5114,-4.5269,-4.5283,-4.5297,-4.5345,-4.5365,-4.5135,-4.5134,-4.5134,-4.5133,0,-4.4714,-4.4779,-4.4838,-4.4891,-4.4929,-4.5003,-4.5003,-4.5042,-4.5029,-4.5035,-4.5122,-4.5145,-4.5199,-4.5223,-4.521,-4.5326,-4.5306,-4.5271,-4.5209,-4.5323,-4.5368,-4.5386,-4.5142,-4.514,-4.5139,-4.5137,0,0,-4.4892,-4.494,-4.4962,-4.4986,-4.5026,-4.5074,-4.5146,-4.52,-4.5234,-4.5271,-4.533,-4.5408,-4.5376,-4.5405,-4.5394,-4.5444,-4.5556,-4.5402,-4.5403,-4.543,-4.5685,-4.5711,-4.5733,-4.5538,-4.5542,-4.5544,-4.5682,0,-4.5028,-4.5156,-4.5149,-4.5268,-4.5326,-4.5293,-4.5355,-4.5386,-4.5393,-4.5442,-4.5449,-4.5505,-4.5458,-4.5475,-4.5524,-4.5533,-4.5607,-4.5523,-4.5592,-4.5594,-4.5584,-4.5757,-4.5785,-4.5913,-4.5699,-4.5702,-4.5704,0,-4.5204,-4.5249,-4.5375,-4.5406,-4.543,-4.5487,-4.5536,-4.5584,-4.5617,-4.5619,-4.5651,-4.5633,-4.5703,-4.564,-4.5737,-4.568,-4.5707,-4.5716,-4.5721,-4.5726,-4.5656,-4.5767,-4.5954,-4.5973,-4.5732,-4.573,-4.5728,0,-4.5321,-4.5413,-4.55,-4.5521,-4.556,-4.56,-4.5618,-4.5648,-4.5681,-4.5723,-4.5743,-4.5793,-4.5819,-4.5857,-4.5852,-4.5806,-4.595,-4.5887,-4.5952,-4.5953,-4.5984,-4.5982,-4.6178,-4.6002,-4.6002,-4.6002,-4.6001,0,-4.5474,-4.5551,-4.5553,-4.5606,-4.5692,-4.5683,-4.5767,-4.578,-4.5807,-4.5861,-4.5834,-4.5884,-4.5874,-4.5925,-4.5921,-4.6001,-4.6013,-4.6015,-4.6013,-4.6018,-4.6018,-4.6036,-4.6026,-4.6007,-4.6006,-4.6005,-4.6004,0,-4.5619,-4.5623,-4.5715,-4.5745,-4.5754,-4.5816,-4.584,-4.589,-4.5895,-4.5964,-4.5979,-4.5987,-4.6044,-4.6043,-4.6108,-4.6105,-4.6204,-4.6191,-4.6193,-4.6191,-4.6256,-4.625,-4.6471,-4.6499,-4.6305,-4.6307,-4.6309,0,-4.5716,-4.5775,-4.5812,-4.5847,-4.5868,-4.5924,-4.5958,-4.5951,-4.5987,-4.6029,-4.6073,-4.6129,-4.6173,-4.6266,-4.6277,-4.6326,-4.6314,-4.6388,-4.6321,-4.6324,-4.6315,-4.6312,-4.6317,-4.6401,-4.6403,-4.6405,-4.6407,0,-4.5888,-4.5887,-4.5938,-4.599,-4.6031,-4.6071,-4.6107,-4.6137,-4.6133,-4.6175,-4.6235,-4.6269,-4.6336,-4.6391,-4.6439,-4.6454,-4.643,-4.6428,-4.6445,-4.6451,-4.6449,-4.645,-4.6229,-4.6423,-4.6421,-4.642,-4.6419,-4.6418,-4.6011,-4.6063,-4.6096,-4.6154,-4.6181,-4.6216,-4.6264,-4.6276,-4.6326,-4.6381,-4.6373,-4.6439,-4.647,-4.6532,-4.6552,-4.6603,-4.6576,-4.6602,-4.6609,-4.6615,-4.6622,-4.6442,-4.6611,-4.6611,-4.661,-4.661,-4.661,0,-4.6181,-4.6202,-4.6255,-4.6308,-4.6352,-4.6327,-4.6366,-4.6404,-4.6464,-4.6496,-4.654,-4.6608,-4.6661,-4.6676,-4.6727,-4.6764,-4.6754,-4.6778,-4.6775,-4.6779,-4.6643,-4.6623,-4.6785,-4.6785,-4.6785,-4.6785,-4.6785,-4.6785,-4.6275,-4.636,-4.6364,-4.6461,-4.648,-4.6547,-4.6571,-4.6602,-4.6628,-4.6706,-4.675,-4.676,-4.6785,-4.6837,-4.6884,-4.6887,-4.6907,-4.6935,-4.6933,-4.6806,-4.6788,-4.6772,-4.6752,-4.6939,-4.694,-4.7064,-4.7066,-4.7067]}]]